Tacoma Narrows, WA
on Sunday, January 13, 2013

Sunday
Previous Day Next Day
Daily Summary
 ActualAverageRecord
Temperature
Mean Temperature °F °F  
Max Temperature 35°F 43°F 53°F (2011)
Min Temperature 28°F 37°F 25°F (2007)
Degree Days
Heating Degree Days 34    
Moisture
Dew Point 25°F   
Average Humidity 78    
Maximum Humidity 86    
Minimum Humidity 61    
Precipitation
Precipitation 0.00 in in in ()
Wind
Wind Speed 0 mph   
Max Wind Speed 5 mph   
Max Gust Speed mph   
Visibility 10 miles   
Events     
Averages and records for this station are not official NWS values.
Key: T is trace of precipitation, MM is missing value
Source: NWS Daily Summary
Seasonal Weather Averages
Time(PST)TemperatureDew PointHumidity Pressure Visibility Wind DirectionWind SpeedGust SpeedPrecipitationEvents Conditions
12:53 AM 28.9°F 21.9°F 75% 30.45 in 10.0 miles Calm Calm - N/A   Clear
1:53 AM 30.0°F 26.1°F 85% 30.46 in 10.0 miles Calm Calm - N/A   Mostly Cloudy
2:16 AM 28.4°F 24.8°F 86% 30.44 in 10.0 miles Calm Calm - N/A   Scattered Clouds
2:53 AM 28.0°F 24.1°F 85% 30.45 in 10.0 miles Calm Calm - N/A   Overcast
3:27 AM 28.4°F 24.8°F 86% 30.44 in 10.0 miles Calm Calm - N/A   Mostly Cloudy
3:37 AM 30.2°F 24.8°F 80% 30.44 in 10.0 miles Calm Calm - N/A   Partly Cloudy
3:53 AM 30.2°F 24.8°F 80% 30.43 in 10.0 miles Calm Calm - N/A   Partly Cloudy
4:07 AM 28.4°F 24.8°F 86% 30.43 in 10.0 miles Calm Calm - N/A   Mostly Cloudy
4:53 AM 28.0°F 24.1°F 85% 30.44 in 10.0 miles NW 3.5 mph - N/A   Overcast
5:53 AM 30.0°F 26.1°F 85% 30.45 in 10.0 miles Calm Calm - N/A   Overcast
6:21 AM 30.2°F 26.6°F 86% 30.44 in 9.0 miles Calm Calm - N/A   Scattered Clouds
6:53 AM 28.9°F 25.0°F 85% 30.47 in 9.0 miles Calm Calm - N/A   Clear
7:53 AM 28.0°F 24.1°F 85% 30.48 in 10.0 miles Calm Calm - N/A   Partly Cloudy
8:53 AM 28.0°F 24.1°F 85% 30.49 in 10.0 miles Calm Calm - N/A   Partly Cloudy
9:53 AM 30.0°F 25.0°F 82% 30.48 in 10.0 miles Calm Calm - N/A   Partly Cloudy
10:53 AM 33.1°F 27.0°F 78% 30.50 in 10.0 miles Calm Calm - N/A   Mostly Cloudy
11:53 AM 33.1°F 26.1°F 75% 30.47 in 10.0 miles Calm Calm - N/A   Overcast
12:53 PM 35.1°F 26.1°F 70% 30.47 in 10.0 miles Calm Calm - N/A   Scattered Clouds
1:53 PM 35.1°F 26.1°F 70% 30.46 in 10.0 miles Calm Calm - N/A   Scattered Clouds
2:53 PM 35.1°F 23.0°F 61% 30.47 in 10.0 miles NNW 4.6 mph - N/A   Clear
3:53 PM 35.1°F 24.1°F 64% 30.47 in 10.0 miles Calm Calm - N/A   Clear
4:53 PM 33.1°F 24.1°F 70% 30.47 in 10.0 miles Calm Calm - N/A   Clear
5:53 PM 30.0°F 23.0°F 75% 30.48 in 10.0 miles Calm Calm - N/A   Clear
6:53 PM 30.9°F 23.0°F 72% 30.48 in 10.0 miles Calm Calm - N/A   Clear
7:53 PM 30.9°F 23.0°F 72% 30.49 in 10.0 miles Calm Calm - N/A   Clear
8:53 PM 30.9°F 25.0°F 79% 30.50 in 10.0 miles Calm Calm - N/A   Overcast
9:53 PM 33.8°F 26.6°F 75% 30.48 in 10.0 miles Calm Calm - N/A   Overcast
10:53 PM 33.1°F 25.0°F 72% 30.51 in 10.0 miles Calm Calm - N/A   Overcast
11:53 PM 30.9°F 24.1°F 76% 30.49 in 10.0 miles SSE 3.5 mph - N/A   Clear
Moon Phase
Jan. 13 Jan. 18 Jan. 26 Feb. 03 Feb. 10
Sunrise:07:53 AM (PST) Moon Rise:08:43 AM (PST)1/13
Sunset:04:45 PM (PST) Moon Set:07:43 PM (PST)1/13

Copyright © 2014 The Weather Underground, Inc.